Weather History for Calgary Springbank, AB

Change the Weather History Date:

Sunday, February 12, 2012

  Actual Average Record
Temperature  
Mean Temperature 24 °F -  
Max Temperature 44 °F 31 °F 55 °F (2006)
Min Temperature 4 °F 10 °F -8 °F (2014)
Degree Days  
Heating Degree Days 41    
Moisture  
Dew Point 18 °F    
Average Humidity 63    
Maximum Humidity 100    
Minimum Humidity 25    
Precipitation  
Precipitation 0.00 in - - ()
Sea Level Pressure  
Sea Level Pressure 29.89 in    
Wind  
Wind Speed 6 mph ()    
Max Wind Speed 10 mph    
Max Gust Speed -    
Visibility 15.5 miles    
Events      
Averages and records for this station are not official NWS values.
T = Trace of Precipitation, MM = Missing Value Source: Averaged Metar Reports

Daily Weather History Graph

Daily Weather History Graph

Search for Another Location

Airport:

Trip Planner

Search our weather history database for the weather conditions in past years. The results will help you decide how hot, cold, wet, or windy it might be!

Date:

Astronomy

Feb. 12, 2012 Rise Set
Actual Time 7:56 AM MST 5:47 PM MST
Civil Twilight 7:22 AM MST 6:22 PM MST
Nautical Twilight 6:43 AM MST 7:01 PM MST
Astronomical Twilight 6:04 AM MST 7:39 PM MST
Moon No Moon Rise 9:31 AM MST (2/12)
Length of Visible Light 11h 00m
Length of Day
9h 50m
Waning Gibbous, 71% of the Moon is Illuminated
Feb 12
Waning Gibbous
Feb 14
Last Quarter
Feb 21
New
Feb 29
First Quarter
Mar 8
Full

Hourly Weather History & Observations

Time (MST) Temp. Windchill Dew Point Humidity Pressure Visibility Wind Dir Wind Speed Gust Speed Precip Events Conditions
5:00 AM 12 °F - 8 °F 76% 30.01 in 15 mi NNW 8.1 mph - -   Partly Cloudy
5:00 AM 12.2 °F -0.2 °F 8.6 °F 85% 30.01 in 15.0 mi NNW 9.2 mph - N/A   Scattered Clouds
6:00 AM 17.6 °F 8.2 °F 14.0 °F 86% 29.99 in 15.0 mi NNW 6.9 mph - N/A   Mostly Cloudy
7:00 AM 19.4 °F 11.5 °F 15.8 °F 86% 29.98 in 15.0 mi NNW 5.8 mph - N/A   Mostly Cloudy
8:00 AM 15.8 °F 4.2 °F 15.8 °F 100% 29.98 in 15.0 mi NW 9.2 mph - N/A   Scattered Clouds
9:00 AM 21.2 °F 14.9 °F 17.6 °F 86% 29.98 in 30.0 mi NW 4.6 mph - N/A   Mostly Cloudy
10:00 AM 24.8 °F 19.1 °F 21.2 °F 86% 29.98 in 30.0 mi NW 4.6 mph - N/A   Mostly Cloudy
11:00 AM 30 °F - 22 °F 62% 29.93 in 28 mi NW 4.6 mph - -   Overcast
11:00 AM 30.2 °F 25.4 °F 23.0 °F 75% 29.93 in 30.0 mi NW 4.6 mph - N/A   Overcast
12:00 PM 33.8 °F 25.8 °F 23.0 °F 65% 29.91 in 30.0 mi North 10.4 mph - N/A   Overcast
1:00 PM 39.2 °F 35.0 °F 23.0 °F 52% 29.89 in 30.0 mi NW 5.8 mph - N/A   Overcast
2:00 PM 41.0 °F 37.1 °F 23.0 °F 49% 29.87 in 30.0 mi North 5.8 mph - N/A   Overcast
3:00 PM 42.8 °F 41.1 °F 21.2 °F 42% 29.85 in 30.0 mi North 3.5 mph - N/A   Overcast
4:00 PM 44.6 °F 39.7 °F 17.6 °F 34% 29.85 in 30.0 mi WNW 9.2 mph - N/A   Overcast
5:00 PM 41 °F - 17 °F 25% 29.82 in 28 mi West 6.9 mph - -   Overcast
5:00 PM 41.0 °F 36.4 °F 17.6 °F 39% 29.82 in 30.0 mi West 6.9 mph - N/A   Overcast
6:00 PM 35.6 °F 31.7 °F 17.6 °F 48% 29.82 in 20.0 mi NNW 4.6 mph - N/A   Overcast
7:00 PM 35.6 °F 29.9 °F 17.6 °F 48% 29.82 in 15.0 mi West 6.9 mph - N/A   Mostly Cloudy
8:00 PM 32.0 °F 23.6 °F 17.6 °F 55% 29.82 in 15.0 mi West 10.4 mph - N/A   Scattered Clouds
9:00 PM 32.0 °F 25.6 °F 17.6 °F 55% 29.82 in 15.0 mi NNW 6.9 mph - N/A   Scattered Clouds
10:00 PM 24.8 °F 16.1 °F 17.6 °F 74% 29.65 in 15.0 mi NNW 8.1 mph - N/A   Scattered Clouds